Time,TemperatureF,DewpointF,PressureIn,WindDirection,WindDirectionDegrees,WindSpeedMPH,WindSpeedGustMPH,Humidity,HourlyPrecipIn,Conditions,Clouds,dailyrainin,SoftwareType,DateUTC
2013-02-13 00:02:00,15.0,9.0,-100.00,SSE,150,4.0,6.0,77,0.00,,,-99.99,,2013-02-13 07:02:00,
2013-02-13 00:11:00,15.0,9.0,-100.00,SSE,165,4.0,6.0,77,0.00,,,-99.99,,2013-02-13 07:11:00,
2013-02-13 00:22:00,15.0,9.0,-100.00,SSE,165,4.0,6.0,77,0.00,,,-99.99,,2013-02-13 07:22:00,
2013-02-13 00:32:00,16.0,10.0,-100.00,SSE,160,3.0,5.0,77,0.00,,,-99.99,,2013-02-13 07:32:00,
2013-02-13 00:42:00,16.0,10.0,-100.00,SSE,155,5.0,6.0,76,0.00,,,-99.99,,2013-02-13 07:42:00,
2013-02-13 00:51:00,16.0,10.0,-100.00,South,170,2.0,6.0,76,0.00,,,-99.99,,2013-02-13 07:51:00,
2013-02-13 01:01:00,16.0,10.0,-100.00,SSE,165,1.0,4.0,76,0.00,,,-99.99,,2013-02-13 08:01:00,
2013-02-13 01:11:00,16.0,10.0,-100.00,SSE,155,4.0,6.0,76,0.00,,,-99.99,,2013-02-13 08:11:00,
2013-02-13 01:21:00,16.0,10.0,-100.00,South,175,3.0,6.0,76,0.00,,,-99.99,,2013-02-13 08:21:00,
2013-02-13 01:32:00,16.0,10.0,-100.00,SSE,155,7.0,9.0,76,0.00,,,-99.99,,2013-02-13 08:32:00,
2013-02-13 01:43:00,17.0,11.0,-100.00,ESE,110,3.0,12.0,76,0.00,,,-99.99,,2013-02-13 08:43:00,
2013-02-13 01:52:00,18.0,11.0,-100.00,East,80,2.0,4.0,76,0.00,,,-99.99,,2013-02-13 08:52:00,
2013-02-13 02:01:00,17.0,11.0,-100.00,SSE,160,2.0,4.0,76,0.00,,,-99.99,,2013-02-13 09:01:00,
2013-02-13 02:11:00,17.0,11.0,-100.00,SE,140,4.0,5.0,76,0.00,,,-99.99,,2013-02-13 09:11:00,
2013-02-13 02:21:00,17.0,11.0,-100.00,SSE,160,4.0,6.0,76,0.00,,,-99.99,,2013-02-13 09:21:00,
2013-02-13 02:31:00,17.0,11.0,-100.00,SSE,155,6.0,7.0,76,0.00,,,-99.99,,2013-02-13 09:31:00,
2013-02-13 02:42:00,17.0,11.0,-100.00,East,95,3.0,7.0,76,0.00,,,-99.99,,2013-02-13 09:42:00,
2013-02-13 02:51:00,17.0,11.0,-100.00,ESE,120,2.0,4.0,76,0.00,,,-99.99,,2013-02-13 09:51:00,
2013-02-13 03:01:00,17.0,11.0,-100.00,SSE,160,3.0,4.0,76,0.00,,,-99.99,,2013-02-13 10:01:00,
2013-02-13 03:11:00,18.0,11.0,-100.00,SSE,160,3.0,4.0,76,0.00,,,-99.99,,2013-02-13 10:11:00,
2013-02-13 03:21:00,17.0,11.0,-100.00,SSE,150,3.0,5.0,76,0.00,,,-99.99,,2013-02-13 10:21:00,
2013-02-13 03:32:00,17.0,11.0,-100.00,SSE,160,7.0,8.0,76,0.00,,,-99.99,,2013-02-13 10:32:00,
2013-02-13 03:42:00,18.0,11.0,-100.00,SE,140,3.0,9.0,76,0.00,,,-99.99,,2013-02-13 10:42:00,
2013-02-13 03:51:00,18.0,12.0,-100.00,SSE,155,4.0,6.0,76,0.00,,,-99.99,,2013-02-13 10:51:00,
2013-02-13 04:01:00,17.0,11.0,-100.00,SSE,155,3.0,5.0,76,0.00,,,-99.99,,2013-02-13 11:01:00,
2013-02-13 04:11:00,18.0,11.0,-100.00,SSE,155,3.0,4.0,76,0.00,,,-99.99,,2013-02-13 11:11:00,
2013-02-13 04:22:00,18.0,11.0,-100.00,SSE,155,4.0,5.0,76,0.00,,,-99.99,,2013-02-13 11:22:00,
2013-02-13 04:32:00,18.0,11.0,-100.00,SSE,150,3.0,6.0,76,0.00,,,-99.99,,2013-02-13 11:32:00,
2013-02-13 04:42:00,18.0,12.0,-100.00,SSE,160,3.0,5.0,77,0.00,,,-99.99,,2013-02-13 11:42:00,
2013-02-13 04:52:00,18.0,12.0,-100.00,SSE,160,2.0,5.0,77,0.00,,,-99.99,,2013-02-13 11:52:00,
2013-02-13 05:02:00,18.0,12.0,-100.00,SSE,165,0.0,4.0,77,0.00,,,-99.99,,2013-02-13 12:02:00,
2013-02-13 05:11:00,18.0,12.0,-100.00,SSE,155,4.0,4.0,77,0.00,,,-99.99,,2013-02-13 12:11:00,
2013-02-13 05:21:00,18.0,12.0,-100.00,SSE,155,4.0,5.0,77,0.00,,,-99.99,,2013-02-13 12:21:00,
2013-02-13 05:32:00,18.0,12.0,-100.00,SSE,150,4.0,6.0,77,0.00,,,-99.99,,2013-02-13 12:32:00,
2013-02-13 05:42:00,18.0,12.0,-100.00,SSE,165,3.0,4.0,77,0.00,,,-99.99,,2013-02-13 12:42:00,
2013-02-13 05:52:00,18.0,12.0,-100.00,SSE,155,1.0,4.0,77,0.00,,,-99.99,,2013-02-13 12:52:00,
2013-02-13 06:02:00,18.0,12.0,-100.00,SSE,155,6.0,8.0,77,0.00,,,-99.99,,2013-02-13 13:02:00,
2013-02-13 06:11:00,18.0,13.0,-100.00,SSE,160,5.0,7.0,77,0.00,,,-99.99,,2013-02-13 13:11:00,
2013-02-13 06:21:00,18.0,12.0,-100.00,South,170,4.0,7.0,77,0.00,,,-99.99,,2013-02-13 13:21:00,
2013-02-13 06:32:00,18.0,12.0,-100.00,SSE,160,3.0,4.0,78,0.00,,,-99.99,,2013-02-13 13:32:00,
2013-02-13 06:42:00,18.0,12.0,-100.00,SSE,155,4.0,5.0,78,0.00,,,-99.99,,2013-02-13 13:42:00,
2013-02-13 06:51:00,18.0,13.0,-100.00,SSE,160,1.0,6.0,78,0.00,,,-99.99,,2013-02-13 13:51:00,
2013-02-13 07:01:00,18.0,12.0,-100.00,SSE,155,5.0,7.0,78,0.00,,,-99.99,,2013-02-13 14:01:00,
2013-02-13 07:11:00,18.0,12.0,-100.00,South,175,2.0,7.0,79,0.00,,,-99.99,,2013-02-13 14:11:00,
2013-02-13 07:21:00,18.0,12.0,-100.00,South,175,2.0,4.0,79,0.00,,,-99.99,,2013-02-13 14:21:00,
2013-02-13 07:31:00,18.0,13.0,-100.00,SSE,160,3.0,5.0,79,0.00,,,-99.99,,2013-02-13 14:31:00,
2013-02-13 07:42:00,18.0,13.0,-100.00,South,175,2.0,4.0,79,0.00,,,-99.99,,2013-02-13 14:42:00,
2013-02-13 07:52:00,18.0,13.0,-100.00,SSW,200,2.0,4.0,80,0.00,,,-99.99,,2013-02-13 14:52:00,
2013-02-13 08:01:00,19.0,14.0,-100.00,SSW,205,2.0,6.0,80,0.00,,,-99.99,,2013-02-13 15:01:00,
2013-02-13 08:11:00,19.0,14.0,-100.00,West,270,2.0,3.0,80,0.00,,,-99.99,,2013-02-13 15:11:00,
2013-02-13 08:21:00,20.0,15.0,-100.00,SSW,210,0.0,3.0,79,0.00,,,-99.99,,2013-02-13 15:21:00,
2013-02-13 08:32:00,20.0,15.0,-100.00,SSE,150,0.0,0.0,79,0.00,,,-99.99,,2013-02-13 15:32:00,
2013-02-13 08:42:00,21.0,15.0,-100.00,WNW,290,0.0,2.0,77,0.00,,,-99.99,,2013-02-13 15:42:00,
2013-02-13 08:51:00,22.0,15.0,-100.00,NW,310,1.0,2.0,75,0.00,,,-99.99,,2013-02-13 15:51:00,
2013-02-13 09:01:00,22.0,15.0,-100.00,NW,310,1.0,2.0,75,0.00,,,-99.99,,2013-02-13 16:01:00,
2013-02-13 09:11:00,22.0,15.0,-100.00,NW,310,1.0,2.0,75,0.00,,,-99.99,,2013-02-13 16:11:00,
2013-02-13 09:21:00,22.0,15.0,-100.00,NW,310,1.0,2.0,75,0.00,,,-99.99,,2013-02-13 16:21:00,
2013-02-13 09:31:00,29.0,17.0,-100.00,SSE,150,0.0,0.0,62,0.00,,,-99.99,,2013-02-13 16:31:00,
2013-02-13 09:42:00,29.0,16.0,-100.00,West,280,1.0,2.0,58,0.00,,,-99.99,,2013-02-13 16:42:00,
2013-02-13 09:52:00,28.0,14.0,-100.00,WNW,290,3.0,4.0,55,0.00,,,-99.99,,2013-02-13 16:52:00,
2013-02-13 10:01:00,27.0,13.0,-100.00,West,270,3.0,7.0,55,0.00,,,-99.99,,2013-02-13 17:01:00,
2013-02-13 10:11:00,27.0,13.0,-100.00,West,270,1.0,6.0,56,0.00,,,-99.99,,2013-02-13 17:11:00,
2013-02-13 10:21:00,28.0,14.0,-100.00,WNW,300,1.0,4.0,56,0.00,,,-99.99,,2013-02-13 17:21:00,
2013-02-13 10:31:00,29.0,15.0,-100.00,West,265,0.0,2.0,55,0.00,,,-99.99,,2013-02-13 17:31:00,
2013-02-13 10:41:00,30.0,15.0,-100.00,NNW,340,0.0,4.0,53,0.00,,,-99.99,,2013-02-13 17:41:00,
2013-02-13 10:52:00,33.0,17.0,-100.00,NNW,345,0.0,1.0,50,0.00,,,-99.99,,2013-02-13 17:52:00,
2013-02-13 11:01:00,35.0,17.0,-100.00,SW,225,0.0,0.0,46,0.00,,,-99.99,,2013-02-13 18:01:00,
2013-02-13 11:11:00,36.0,15.0,-100.00,WNW,290,2.0,3.0,43,0.00,,,-99.99,,2013-02-13 18:11:00,
2013-02-13 11:22:00,35.0,14.0,-100.00,West,270,3.0,4.0,41,0.00,,,-99.99,,2013-02-13 18:22:00,
2013-02-13 11:32:00,33.0,13.0,-100.00,WNW,290,3.0,4.0,41,0.00,,,-99.99,,2013-02-13 18:32:00,
2013-02-13 11:42:00,33.0,12.0,-100.00,NW,310,0.0,4.0,41,0.00,,,-99.99,,2013-02-13 18:42:00,
2013-02-13 11:52:00,38.0,16.0,-100.00,NE,45,1.0,2.0,41,0.00,,,-99.99,,2013-02-13 18:52:00,
2013-02-13 12:01:00,39.0,15.0,-100.00,West,280,2.0,4.0,37,0.00,,,-99.99,,2013-02-13 19:01:00,
2013-02-13 12:11:00,37.0,13.0,-100.00,NNW,340,1.0,6.0,37,0.00,,,-99.99,,2013-02-13 19:11:00,
2013-02-13 12:21:00,35.0,12.0,-100.00,West,280,6.0,7.0,38,0.00,,,-99.99,,2013-02-13 19:21:00,
2013-02-13 12:31:00,34.0,13.0,-100.00,West,280,2.0,7.0,39,0.00,,,-99.99,,2013-02-13 19:31:00,
2013-02-13 12:42:00,34.0,13.0,-100.00,WNW,290,6.0,7.0,40,0.00,,,-99.99,,2013-02-13 19:42:00,
2013-02-13 12:51:00,35.0,14.0,-100.00,NNW,335,2.0,6.0,41,0.00,,,-99.99,,2013-02-13 19:51:00,
2013-02-13 13:02:00,35.0,14.0,-100.00,West,275,3.0,7.0,41,0.00,,,-99.99,,2013-02-13 20:02:00,
2013-02-13 13:11:00,35.0,14.0,-100.00,WSW,250,3.0,11.0,41,0.00,,,-99.99,,2013-02-13 20:11:00,
2013-02-13 13:21:00,37.0,15.0,-100.00,WSW,245,1.0,4.0,40,0.00,,,-99.99,,2013-02-13 20:21:00,
2013-02-13 13:31:00,36.0,14.0,-100.00,WNW,285,7.0,9.0,40,0.00,,,-99.99,,2013-02-13 20:31:00,
2013-02-13 13:42:00,35.0,14.0,-100.00,WNW,285,4.0,10.0,41,0.00,,,-99.99,,2013-02-13 20:42:00,
2013-02-13 13:52:00,35.0,14.0,-100.00,WNW,285,4.0,10.0,41,0.00,,,-99.99,,2013-02-13 20:52:00,
2013-02-13 14:01:00,36.0,15.0,-100.00,WNW,285,5.0,10.0,41,0.00,,,-99.99,,2013-02-13 21:01:00,
2013-02-13 14:11:00,35.0,15.0,-100.00,WNW,295,6.0,10.0,42,0.00,,,-99.99,,2013-02-13 21:11:00,
2013-02-13 14:21:00,35.0,15.0,-100.00,NW,305,6.0,11.0,42,0.00,,,-99.99,,2013-02-13 21:21:00,
2013-02-13 14:31:00,35.0,14.0,-100.00,NW,305,5.0,12.0,43,0.00,,,-99.99,,2013-02-13 21:31:00,
2013-02-13 14:42:00,35.0,15.0,-100.00,West,280,6.0,9.0,43,0.00,,,-99.99,,2013-02-13 21:42:00,
2013-02-13 14:52:00,35.0,15.0,-100.00,West,280,5.0,9.0,43,0.00,,,-99.99,,2013-02-13 21:52:00,
2013-02-13 15:02:00,35.0,15.0,-100.00,WNW,285,7.0,10.0,43,0.00,,,-99.99,,2013-02-13 22:02:00,
2013-02-13 15:11:00,34.0,15.0,-100.00,WSW,240,3.0,6.0,44,0.00,,,-99.99,,2013-02-13 22:11:00,
2013-02-13 15:21:00,34.0,15.0,-100.00,WSW,240,4.0,7.0,45,0.00,,,-99.99,,2013-02-13 22:21:00,
2013-02-13 15:31:00,35.0,16.0,-100.00,West,280,4.0,7.0,45,0.00,,,-99.99,,2013-02-13 22:31:00,
2013-02-13 15:42:00,35.0,16.0,-100.00,West,260,2.0,7.0,45,0.00,,,-99.99,,2013-02-13 22:42:00,
2013-02-13 15:51:00,35.0,15.0,-100.00,WNW,285,6.0,9.0,45,0.00,,,-99.99,,2013-02-13 22:51:00,
2013-02-13 16:01:00,35.0,15.0,-100.00,WNW,285,6.0,9.0,45,0.00,,,-99.99,,2013-02-13 23:01:00,
2013-02-13 16:11:00,35.0,15.0,-100.00,WNW,295,4.0,6.0,45,0.00,,,-99.99,,2013-02-13 23:11:00,
2013-02-13 16:21:00,34.0,15.0,-100.00,WNW,285,3.0,4.0,45,0.00,,,-99.99,,2013-02-13 23:21:00,
2013-02-13 16:32:00,35.0,16.0,-100.00,SW,225,0.0,4.0,45,0.00,,,-99.99,,2013-02-13 23:32:00,
2013-02-13 16:42:00,35.0,16.0,-100.00,WSW,255,1.0,3.0,45,0.00,,,-99.99,,2013-02-13 23:42:00,
2013-02-13 16:52:00,35.0,16.0,-100.00,West,280,0.0,3.0,45,0.00,,,-99.99,,2013-02-13 23:52:00,
2013-02-13 17:02:00,35.0,16.0,-100.00,West,275,2.0,4.0,45,0.00,,,-99.99,,2013-02-14 00:02:00,
2013-02-13 17:11:00,34.0,16.0,-100.00,SW,225,2.0,4.0,46,0.00,,,-99.99,,2013-02-14 00:11:00,
2013-02-13 17:21:00,33.0,15.0,-100.00,WSW,255,1.0,3.0,46,0.00,,,-99.99,,2013-02-14 00:21:00,
2013-02-13 17:32:00,33.0,15.0,-100.00,SSE,155,0.0,1.0,48,0.00,,,-99.99,,2013-02-14 00:32:00,
2013-02-13 17:42:00,31.0,15.0,-100.00,SSE,165,1.0,2.0,50,0.00,,,-99.99,,2013-02-14 00:42:00,
2013-02-13 17:51:00,30.0,15.0,-100.00,SSE,155,1.0,2.0,53,0.00,,,-99.99,,2013-02-14 00:51:00,
2013-02-13 18:01:00,29.0,15.0,-100.00,SSE,160,0.0,2.0,55,0.00,,,-99.99,,2013-02-14 01:01:00,
2013-02-13 18:11:00,28.0,14.0,-100.00,SSE,150,0.0,0.0,57,0.00,,,-99.99,,2013-02-14 01:11:00,
2013-02-13 18:21:00,27.0,15.0,-100.00,SSE,150,1.0,2.0,59,0.00,,,-99.99,,2013-02-14 01:21:00,
2013-02-13 18:31:00,28.0,17.0,-100.00,SSE,160,2.0,4.0,62,0.00,,,-99.99,,2013-02-14 01:31:00,
2013-02-13 18:41:00,27.0,17.0,-100.00,South,170,3.0,5.0,64,0.00,,,-99.99,,2013-02-14 01:41:00,
2013-02-13 18:51:00,27.0,17.0,-100.00,SSE,160,1.0,6.0,67,0.00,,,-99.99,,2013-02-14 01:51:00,
2013-02-13 19:01:00,27.0,18.0,-100.00,SSE,160,3.0,5.0,68,0.00,,,-99.99,,2013-02-14 02:01:00,
2013-02-13 19:11:00,27.0,18.0,-100.00,SSE,155,3.0,4.0,69,0.00,,,-99.99,,2013-02-14 02:11:00,
2013-02-13 19:21:00,27.0,19.0,-100.00,SE,145,4.0,5.0,70,0.00,,,-99.99,,2013-02-14 02:21:00,
2013-02-13 19:31:00,27.0,19.0,-100.00,SSE,160,0.0,4.0,70,0.00,,,-99.99,,2013-02-14 02:31:00,
2013-02-13 19:41:00,27.0,19.0,-100.00,SSE,160,0.0,4.0,70,0.00,,,-99.99,,2013-02-14 02:41:00,
2013-02-13 19:51:00,27.0,19.0,-100.00,SSE,160,0.0,4.0,70,0.00,,,-99.99,,2013-02-14 02:51:00,
2013-02-13 20:02:00,26.0,19.0,-100.00,SSW,205,1.0,2.0,72,0.00,,,-99.99,,2013-02-14 03:02:00,
2013-02-13 20:11:00,26.0,18.0,-100.00,South,185,1.0,2.0,72,0.00,,,-99.99,,2013-02-14 03:11:00,
2013-02-13 20:21:00,25.0,18.0,-100.00,South,190,1.0,2.0,74,0.00,,,-99.99,,2013-02-14 03:21:00,
2013-02-13 20:31:00,25.0,19.0,-100.00,South,190,3.0,4.0,75,0.00,,,-99.99,,2013-02-14 03:31:00,
2013-02-13 20:42:00,25.0,19.0,-100.00,South,170,4.0,6.0,76,0.00,,,-99.99,,2013-02-14 03:42:00,
2013-02-13 20:51:00,25.0,19.0,-100.00,SSE,165,4.0,7.0,77,0.00,,,-99.99,,2013-02-14 03:51:00,
2013-02-13 21:01:00,25.0,19.0,-100.00,South,180,4.0,7.0,77,0.00,,,-99.99,,2013-02-14 04:01:00,
2013-02-13 21:12:00,25.0,19.0,-100.00,South,175,2.0,6.0,77,0.00,,,-99.99,,2013-02-14 04:12:00,
2013-02-13 21:21:00,25.0,19.0,-100.00,SSE,150,2.0,3.0,77,0.00,,,-99.99,,2013-02-14 04:21:00,
2013-02-13 21:31:00,24.0,19.0,-100.00,SSW,195,3.0,6.0,77,0.00,,,-99.99,,2013-02-14 04:31:00,
2013-02-13 21:41:00,24.0,18.0,-100.00,SSE,155,4.0,6.0,77,0.00,,,-99.99,,2013-02-14 04:41:00,
2013-02-13 21:51:00,24.0,18.0,-100.00,SSE,155,4.0,6.0,77,0.00,,,-99.99,,2013-02-14 04:51:00,
2013-02-13 22:02:00,23.0,18.0,-100.00,SSE,160,3.0,6.0,79,0.00,,,-99.99,,2013-02-14 05:02:00,
2013-02-13 22:11:00,23.0,18.0,-100.00,South,170,4.0,7.0,79,0.00,,,-99.99,,2013-02-14 05:11:00,
2013-02-13 22:21:00,22.0,17.0,-100.00,South,175,3.0,6.0,79,0.00,,,-99.99,,2013-02-14 05:21:00,
2013-02-13 22:32:00,22.0,17.0,-100.00,South,185,3.0,5.0,80,0.00,,,-99.99,,2013-02-14 05:32:00,
2013-02-13 22:42:00,22.0,17.0,-100.00,South,175,2.0,5.0,80,0.00,,,-99.99,,2013-02-14 05:42:00,
2013-02-13 22:52:00,22.0,17.0,-100.00,SSE,150,9.0,10.0,81,0.00,,,-99.99,,2013-02-14 05:52:00,
2013-02-13 23:02:00,22.0,18.0,-100.00,SSE,155,7.0,11.0,81,0.00,,,-99.99,,2013-02-14 06:02:00,
2013-02-13 23:11:00,22.0,17.0,-100.00,SSE,165,3.0,8.0,81,0.00,,,-99.99,,2013-02-14 06:11:00,
2013-02-13 23:21:00,22.0,17.0,-100.00,SSW,195,2.0,6.0,80,0.00,,,-99.99,,2013-02-14 06:21:00,
2013-02-13 23:31:00,22.0,17.0,-100.00,South,170,4.0,6.0,80,0.00,,,-99.99,,2013-02-14 06:31:00,
2013-02-13 23:42:00,22.0,17.0,-100.00,SSE,155,6.0,7.0,80,0.00,,,-99.99,,2013-02-14 06:42:00,
2013-02-13 23:51:00,22.0,17.0,-100.00,SE,145,4.0,8.0,80,0.00,,,-99.99,,2013-02-14 06:51:00,